| time (UTC) | temp F | wind direction | speed MPH | gust MPH | rain 1hr in | rain 24hr in | rain mn in | humidity % | barometer mb |
| 20260906060904 | 72 | 0 | 0.0 | 0.0 | 0.00 | 0.00 | 0.00 | 59 | 1019.2 |
| 20260906055904 | 72 | 0 | 0.0 | 0.0 | 0.00 | 0.00 | 0.00 | 59 | 1019.2 |
| 20260906055404 | 72 | 0 | 0.0 | 0.0 | 0.00 | 0.00 | 0.00 | 59 | 1019.2 |
| 20260906054904 | 72 | 0 | 0.0 | 0.0 | 0.00 | 0.00 | 0.00 | 59 | 1019.3 |
| 20260906054404 | 72 | 0 | 0.0 | 0.0 | 0.00 | 0.00 | 0.00 | 59 | 1019.2 |
| 20260906053904 | 72 | 0 | 0.0 | 0.0 | 0.00 | 0.00 | 0.00 | 59 | 1019.3 |
| 20260906053404 | 72 | 0 | 0.0 | 0.0 | 0.00 | 0.00 | 0.00 | 59 | 1019.3 |
| 20260906052904 | 72 | 0 | 0.0 | 0.0 | 0.00 | 0.00 | 0.00 | 59 | 1019.2 |
| 20260906052404 | 72 | 0 | 0.0 | 0.0 | 0.00 | 0.00 | 0.00 | 59 | 1019.1 |
| 20260906051904 | 72 | 0 | 0.0 | 0.0 | 0.00 | 0.00 | 0.00 | 59 | 1019.2 |
| 20260906051404 | 72 | 0 | 0.0 | 0.0 | 0.00 | 0.00 | 0.00 | 59 | 1019.3 |
| 20260906050904 | 72 | 0 | 0.0 | 0.0 | 0.00 | 0.00 | 0.00 | 59 | 1019.2 |
| 20260906050404 | 72 | 0 | 0.0 | 0.0 | 0.00 | 0.00 | 0.00 | 59 | 1019.1 |
| 20260906045904 | 72 | 0 | 0.0 | 0.0 | 0.00 | 0.00 | 0.00 | 59 | 1019.0 |
| 20260906045404 | 72 | 0 | 0.0 | 0.0 | 0.00 | 0.00 | 0.00 | 59 | 1019.0 |
| 20260906044404 | 72 | 0 | 0.0 | 0.0 | 0.00 | 0.00 | 0.00 | 59 | 1018.8 |
| 20260906042904 | 72 | 0 | 0.0 | 0.0 | 0.00 | 0.00 | 0.00 | 59 | 1018.6 |
| 20260906042403 | 72 | 0 | 0.0 | 0.0 | 0.00 | 0.00 | 0.00 | 59 | 1018.7 |
| 20260906041904 | 72 | 0 | 0.0 | 0.0 | 0.00 | 0.00 | 0.00 | 59 | 1018.6 |
| 20260906040903 | 72 | 0 | 0.0 | 0.0 | 0.00 | 0.00 | 0.00 | 59 | 1018.5 |
| 20260906040403 | 72 | 0 | 0.0 | 0.0 | 0.00 | 0.00 | 0.00 | 59 | 1018.5 |
| 20260906035404 | 72 | 0 | 0.0 | 0.0 | 0.00 | 0.00 | 0.00 | 59 | 1018.5 |
| 20260906034904 | 72 | 0 | 0.0 | 0.0 | 0.00 | 0.00 | 0.00 | 59 | 1018.4 |
| 20260906034403 | 72 | 0 | 0.0 | 0.0 | 0.00 | 0.00 | 0.00 | 59 | 1018.3 |
| 20260906033904 | 72 | 0 | 0.0 | 0.0 | 0.00 | 0.00 | 0.00 | 59 | 1018.3 |
| 20260906033404 | 72 | 52 | 0.0 | 1.0 | 0.00 | 0.00 | 0.00 | 59 | 1018.3 |
| 20260906032903 | 72 | 52 | 0.0 | 1.0 | 0.00 | 0.00 | 0.00 | 59 | 1018.3 |
| 20260906032404 | 72 | 55 | 0.0 | 2.0 | 0.00 | 0.00 | 0.00 | 59 | 1018.2 |
| 20260906031903 | 72 | 55 | 1.0 | 2.0 | 0.00 | 0.00 | 0.00 | 60 | 1018.2 |
| 20260906031403 | 72 | 54 | 1.0 | 2.0 | 0.00 | 0.00 | 0.00 | 60 | 1018.2 |
| 20260906030904 | 72 | 62 | 1.0 | 1.0 | 0.00 | 0.00 | 0.00 | 59 | 1018.3 |
| 20260906030403 | 72 | 63 | 0.0 | 1.0 | 0.00 | 0.00 | 0.00 | 59 | 1018.2 |
| 20260906025404 | 73 | 59 | 0.0 | 1.0 | 0.00 | 0.00 | 0.00 | 58 | 1018.1 |
| 20260906024903 | 72 | 59 | 0.0 | 1.0 | 0.00 | 0.00 | 0.00 | 56 | 1018.0 |
| 20260906024404 | 72 | 59 | 0.0 | 1.0 | 0.00 | 0.00 | 0.00 | 56 | 1018.0 |
| 20260906023903 | 72 | 59 | 0.0 | 1.0 | 0.00 | 0.00 | 0.00 | 55 | 1018.0 |
| 20260906022904 | 72 | 59 | 0.0 | 1.0 | 0.00 | 0.00 | 0.00 | 57 | 1017.9 |
| 20260906022404 | 73 | 59 | 0.0 | 0.0 | 0.00 | 0.00 | 0.00 | 56 | 1017.9 |
| 20260906021404 | 74 | 59 | 0.0 | 0.0 | 0.00 | 0.00 | 0.00 | 54 | 1018.0 |
| 20260906020904 | 74 | 59 | 0.0 | 1.0 | 0.00 | 0.00 | 0.00 | 55 | 1018.0 |
| 20260906020404 | 74 | 58 | 0.0 | 1.0 | 0.00 | 0.00 | 0.00 | 56 | 1018.0 |
| 20260906015904 | 74 | 59 | 0.0 | 1.0 | 0.00 | 0.00 | 0.00 | 57 | 1018.0 |
| 20260906014904 | 72 | 59 | 0.0 | 1.0 | 0.00 | 0.00 | 0.00 | 57 | 1018.1 |
| 20260906014404 | 72 | 59 | 0.0 | 1.0 | 0.00 | 0.00 | 0.00 | 57 | 1018.1 |
| 20260906013903 | 71 | 59 | 0.0 | 1.0 | 0.00 | 0.00 | 0.00 | 58 | 1018.1 |
| 20260906013403 | 72 | 59 | 0.0 | 1.0 | 0.00 | 0.00 | 0.00 | 58 | 1018.1 |
| 20260906012403 | 73 | 60 | 0.0 | 0.0 | 0.00 | 0.00 | 0.00 | 56 | 1018.0 |
| 20260906011904 | 72 | 60 | 0.0 | 1.0 | 0.00 | 0.00 | 0.00 | 56 | 1018.0 |
| 20260906011404 | 72 | 60 | 0.0 | 1.0 | 0.00 | 0.00 | 0.00 | 56 | 1018.0 |
| 20260906010904 | 71 | 60 | 0.0 | 1.0 | 0.00 | 0.00 | 0.00 | 58 | 1018.1 |
| 20260906005903 | 72 | 56 | 0.0 | 1.0 | 0.00 | 0.00 | 0.00 | 58 | 1018.0 |
| 20260906005403 | 73 | 56 | 0.0 | 1.0 | 0.00 | 0.00 | 0.00 | 56 | 1018.0 |
| 20260906004903 | 73 | 56 | 0.0 | 1.0 | 0.00 | 0.00 | 0.00 | 55 | 1018.0 |
| 20260906004403 | 73 | 56 | 1.0 | 1.0 | 0.00 | 0.00 | 0.00 | 56 | 1018.0 |
| 20260906003904 | 74 | 53 | 0.0 | 1.0 | 0.00 | 0.00 | 0.00 | 55 | 1018.0 |
| 20260906003404 | 74 | 53 | 1.0 | 2.0 | 0.00 | 0.00 | 0.00 | 54 | 1018.1 |
| 20260906002404 | 73 | 52 | 1.0 | 2.0 | 0.00 | 0.00 | 0.00 | 57 | 1017.9 |
| 20260906001904 | 74 | 49 | 0.0 | 1.0 | 0.00 | 0.00 | 0.00 | 55 | 1018.0 |
| 20260906001403 | 75 | 49 | 0.0 | 1.0 | 0.00 | 0.00 | 0.00 | 55 | 1018.1 |
| 20260906000903 | 75 | 49 | 1.0 | 2.0 | 0.00 | 0.00 | 0.00 | 52 | 1018.1 |
| 20260906000403 | 75 | 49 | 1.0 | 2.0 | 0.00 | 0.00 | 0.00 | 52 | 1018.1 |
| 20260905235403 | 75 | 49 | 1.0 | 3.0 | 0.00 | 0.00 | 0.00 | 53 | 1018.1 |
| 20260905234904 | 74 | 49 | 2.0 | 3.0 | 0.00 | 0.00 | 0.00 | 54 | 1018.0 |
| 20260905233904 | 74 | 46 | 0.0 | 1.0 | 0.00 | 0.00 | 0.00 | 56 | 1018.1 |
| 20260905233405 | 75 | 46 | 0.0 | 1.0 | 0.00 | 0.00 | 0.00 | 55 | 1018.3 |
| 20260905232904 | 76 | 46 | 1.0 | 1.0 | 0.00 | 0.00 | 0.00 | 53 | 1018.3 |
| 20260905231904 | 76 | 45 | 1.0 | 1.0 | 0.00 | 0.00 | 0.00 | 52 | 1018.3 |
| 20260905231404 | 75 | 45 | 1.0 | 1.0 | 0.00 | 0.00 | 0.00 | 53 | 1018.3 |
| 20260905230904 | 76 | 45 | 0.0 | 1.0 | 0.00 | 0.00 | 0.00 | 52 | 1018.3 |
| 20260905225903 | 76 | 45 | 1.0 | 2.0 | 0.00 | 0.00 | 0.00 | 51 | 1018.4 |
| 20260905225403 | 76 | 45 | 1.0 | 3.0 | 0.00 | 0.00 | 0.00 | 51 | 1018.4 |
| 20260905224903 | 76 | 46 | 1.0 | 3.0 | 0.00 | 0.00 | 0.00 | 52 | 1018.4 |
| 20260905224403 | 76 | 44 | 1.0 | 2.0 | 0.00 | 0.00 | 0.00 | 51 | 1018.5 |
| 20260905222903 | 77 | 49 | 1.0 | 3.0 | 0.00 | 0.00 | 0.00 | 50 | 1018.5 |
| 20260905222403 | 78 | 57 | 2.0 | 3.0 | 0.00 | 0.00 | 0.00 | 49 | 1018.5 |
| 20260905221903 | 78 | 48 | 2.0 | 3.0 | 0.00 | 0.00 | 0.00 | 49 | 1018.5 |
| 20260905221404 | 77 | 71 | 1.0 | 3.0 | 0.00 | 0.00 | 0.00 | 50 | 1018.5 |
| 20260905220904 | 77 | 45 | 2.0 | 3.0 | 0.00 | 0.00 | 0.00 | 50 | 1018.4 |
| 20260905220404 | 77 | 50 | 2.0 | 3.0 | 0.00 | 0.00 | 0.00 | 51 | 1018.4 |
| 20260905215903 | 77 | 49 | 2.0 | 3.0 | 0.00 | 0.00 | 0.00 | 51 | 1018.4 |
| 20260905215403 | 77 | 48 | 2.0 | 3.0 | 0.00 | 0.00 | 0.00 | 51 | 1018.4 |
| 20260905214903 | 77 | 54 | 2.0 | 3.0 | 0.00 | 0.00 | 0.00 | 51 | 1018.4 |
| 20260905214404 | 77 | 56 | 2.0 | 3.0 | 0.00 | 0.00 | 0.00 | 51 | 1018.5 |
| 20260905213903 | 77 | 52 | 2.0 | 3.0 | 0.00 | 0.00 | 0.00 | 51 | 1018.6 |
| 20260905213403 | 78 | 52 | 2.0 | 3.0 | 0.00 | 0.00 | 0.00 | 50 | 1018.7 |
| 20260905212404 | 78 | 62 | 2.0 | 3.0 | 0.00 | 0.00 | 0.00 | 50 | 1018.8 |
| 20260905211904 | 78 | 56 | 2.0 | 3.0 | 0.00 | 0.00 | 0.00 | 50 | 1018.7 |
| 20260905210903 | 78 | 54 | 2.0 | 3.0 | 0.00 | 0.00 | 0.00 | 50 | 1018.8 |
| 20260905210404 | 78 | 54 | 2.0 | 3.0 | 0.00 | 0.00 | 0.00 | 50 | 1018.8 |
| 20260905205903 | 78 | 50 | 2.0 | 3.0 | 0.00 | 0.00 | 0.00 | 50 | 1018.8 |
| 20260905205403 | 78 | 47 | 2.0 | 3.0 | 0.00 | 0.00 | 0.00 | 50 | 1018.9 |
| 20260905204904 | 78 | 64 | 2.0 | 3.0 | 0.00 | 0.00 | 0.00 | 50 | 1018.9 |
| 20260905204403 | 78 | 44 | 2.0 | 3.0 | 0.00 | 0.00 | 0.00 | 50 | 1018.9 |
| 20260905203903 | 78 | 56 | 1.0 | 2.0 | 0.00 | 0.00 | 0.00 | 50 | 1019.0 |
| 20260905203403 | 78 | 47 | 1.0 | 3.0 | 0.00 | 0.00 | 0.00 | 50 | 1018.9 |
| 20260905202903 | 78 | 41 | 1.0 | 3.0 | 0.00 | 0.00 | 0.00 | 51 | 1018.9 |
| 20260905202403 | 78 | 58 | 2.0 | 3.0 | 0.00 | 0.00 | 0.00 | 51 | 1018.9 |
| 20260905201903 | 78 | 57 | 2.0 | 3.0 | 0.00 | 0.00 | 0.00 | 51 | 1018.8 |
| 20260905201404 | 78 | 76 | 1.0 | 3.0 | 0.00 | 0.00 | 0.00 | 52 | 1018.8 |
| 20260905200904 | 78 | 54 | 2.0 | 3.0 | 0.00 | 0.00 | 0.00 | 52 | 1018.9 |
| 20260905200403 | 78 | 50 | 2.0 | 3.0 | 0.00 | 0.00 | 0.00 | 52 | 1018.9 |
| 20260905195904 | 78 | 49 | 2.0 | 3.0 | 0.00 | 0.00 | 0.00 | 53 | 1018.9 |
| 20260905195403 | 78 | 54 | 2.0 | 3.0 | 0.00 | 0.00 | 0.00 | 54 | 1018.9 |
| 20260905194904 | 78 | 51 | 2.0 | 3.0 | 0.00 | 0.00 | 0.00 | 54 | 1018.9 |
| 20260905194405 | 78 | 61 | 1.0 | 3.0 | 0.00 | 0.00 | 0.00 | 54 | 1019.0 |
| 20260905193404 | 78 | 54 | 2.0 | 3.0 | 0.00 | 0.00 | 0.00 | 55 | 1018.9 |
| 20260905192904 | 78 | 51 | 1.0 | 3.0 | 0.00 | 0.00 | 0.00 | 55 | 1019.0 |
| 20260905192404 | 78 | 56 | 2.0 | 3.0 | 0.00 | 0.00 | 0.00 | 56 | 1019.0 |
| 20260905191904 | 78 | 52 | 2.0 | 3.0 | 0.00 | 0.01 | 0.00 | 57 | 1019.0 |
| 20260905191403 | 78 | 66 | 2.0 | 3.0 | 0.00 | 0.05 | 0.00 | 56 | 1019.1 |
| 20260905190903 | 78 | 51 | 2.0 | 2.0 | 0.00 | 0.09 | 0.00 | 56 | 1019.0 |
| 20260905185403 | 78 | 42 | 1.0 | 2.0 | 0.00 | 0.10 | 0.00 | 54 | 1019.0 |
| 20260905184904 | 78 | 42 | 1.0 | 2.0 | 0.00 | 0.10 | 0.00 | 54 | 1019.1 |
| 20260905184403 | 78 | 47 | 1.0 | 2.0 | 0.00 | 0.10 | 0.00 | 54 | 1019.0 |
| 20260905183904 | 78 | 47 | 1.0 | 2.0 | 0.00 | 0.10 | 0.00 | 54 | 1018.9 |
| 20260905182904 | 79 | 46 | 0.0 | 2.0 | 0.00 | 0.10 | 0.00 | 53 | 1018.7 |
| 20260905182404 | 79 | 46 | 1.0 | 2.0 | 0.00 | 0.10 | 0.00 | 53 | 1018.7 |
| 20260905181903 | 79 | 42 | 1.0 | 2.0 | 0.00 | 0.10 | 0.00 | 54 | 1018.6 |
| 20260905180904 | 79 | 46 | 1.0 | 2.0 | 0.00 | 0.10 | 0.00 | 55 | 1018.5 |
| 20260905180404 | 79 | 50 | 1.0 | 2.0 | 0.00 | 0.10 | 0.00 | 55 | 1018.5 |
| 20260905175904 | 79 | 79 | 1.0 | 2.0 | 0.00 | 0.10 | 0.00 | 55 | 1018.5 |
| 20260905174904 | 79 | 89 | 1.0 | 2.0 | 0.00 | 0.10 | 0.00 | 54 | 1018.4 |
| 20260905174404 | 79 | 98 | 0.0 | 1.0 | 0.00 | 0.10 | 0.00 | 54 | 1018.5 |
| 20260905173904 | 79 | 99 | 0.0 | 1.0 | 0.00 | 0.10 | 0.00 | 53 | 1018.4 |
| 20260905173404 | 79 | 100 | 0.0 | 1.0 | 0.00 | 0.10 | 0.00 | 53 | 1018.3 |
| 20260905172903 | 80 | 100 | 0.0 | 1.0 | 0.00 | 0.10 | 0.00 | 53 | 1018.3 |
| 20260905172403 | 80 | 96 | 0.0 | 1.0 | 0.00 | 0.10 | 0.00 | 53 | 1018.3 |
| 20260905171904 | 81 | 96 | 0.0 | 1.0 | 0.00 | 0.10 | 0.00 | 53 | 1018.3 |
| 20260905171404 | 82 | 152 | 0.0 | 1.0 | 0.00 | 0.10 | 0.00 | 52 | 1018.3 |
| 20260905170903 | 82 | 155 | 0.0 | 0.0 | 0.00 | 0.10 | 0.00 | 52 | 1018.3 |
| 20260905170404 | 83 | 155 | 0.0 | 0.0 | 0.00 | 0.10 | 0.00 | 51 | 1018.2 |
| 20260905165403 | 85 | 155 | 0.0 | 2.0 | 0.00 | 0.10 | 0.00 | 47 | 1018.2 |
| 20260905164903 | 86 | 220 | 0.0 | 1.0 | 0.00 | 0.10 | 0.00 | 45 | 1018.2 |
| 20260905164403 | 87 | 129 | 0.0 | 3.0 | 0.00 | 0.10 | 0.00 | 45 | 1018.1 |
| 20260905163904 | 88 | 131 | 0.0 | 3.0 | 0.00 | 0.10 | 0.00 | 45 | 1018.0 |
| 20260905163403 | 88 | 151 | 0.0 | 3.0 | 0.00 | 0.10 | 0.00 | 44 | 1018.1 |
| 20260905161904 | 89 | 126 | 1.0 | 5.0 | 0.00 | 0.10 | 0.00 | 43 | 1018.1 |
| 20260905161403 | 90 | 201 | 2.0 | 5.0 | 0.00 | 0.10 | 0.00 | 41 | 1018.1 |
| 20260905160904 | 90 | 201 | 1.0 | 3.0 | 0.00 | 0.10 | 0.00 | 41 | 1018.1 |
| 20260905160404 | 90 | 207 | 0.0 | 3.0 | 0.00 | 0.10 | 0.00 | 41 | 1018.1 |
| 20260905155904 | 90 | 216 | 1.0 | 3.0 | 0.00 | 0.10 | 0.00 | 42 | 1018.1 |
| 20260905155403 | 90 | 198 | 2.0 | 3.0 | 0.00 | 0.10 | 0.00 | 42 | 1018.1 |
| 20260905154903 | 91 | 201 | 2.0 | 3.0 | 0.00 | 0.10 | 0.00 | 44 | 1018.1 |
| 20260905154403 | 91 | 197 | 1.0 | 5.0 | 0.00 | 0.10 | 0.00 | 46 | 1018.1 |
| 20260905153403 | 92 | 199 | 1.0 | 7.0 | 0.00 | 0.10 | 0.00 | 44 | 1018.1 |
| 20260905152903 | 92 | 215 | 1.0 | 7.0 | 0.00 | 0.10 | 0.00 | 43 | 1018.1 |
| 20260905151904 | 93 | 206 | 1.0 | 5.0 | 0.00 | 0.10 | 0.00 | 39 | 1018.0 |
| 20260905151404 | 93 | 213 | 1.0 | 3.0 | 0.00 | 0.10 | 0.00 | 39 | 1018.0 |
| 20260905150904 | 93 | 188 | 1.0 | 3.0 | 0.00 | 0.10 | 0.00 | 43 | 1018.0 |
| 20260905150404 | 93 | 200 | 1.0 | 3.0 | 0.00 | 0.10 | 0.00 | 39 | 1018.0 |
| 20260905145905 | 93 | 214 | 2.0 | 3.0 | 0.00 | 0.10 | 0.00 | 38 | 1018.0 |
| 20260905145403 | 93 | 209 | 0.0 | 3.0 | 0.00 | 0.10 | 0.00 | 38 | 1018.0 |
| 20260905144903 | 92 | 243 | 1.0 | 3.0 | 0.00 | 0.10 | 0.00 | 38 | 1018.0 |
| 20260905144404 | 92 | 236 | 2.0 | 6.0 | 0.00 | 0.10 | 0.00 | 39 | 1018.0 |
| 20260905143904 | 92 | 231 | 1.0 | 6.0 | 0.00 | 0.10 | 0.00 | 40 | 1018.0 |
| 20260905143404 | 93 | 208 | 2.0 | 6.0 | 0.00 | 0.10 | 0.00 | 41 | 1018.1 |
| 20260905142903 | 93 | 196 | 2.0 | 5.0 | 0.00 | 0.10 | 0.00 | 40 | 1018.2 |
| 20260905142403 | 92 | 219 | 1.0 | 5.0 | 0.00 | 0.10 | 0.00 | 40 | 1018.3 |
| 20260905141903 | 92 | 300 | 2.0 | 7.0 | 0.00 | 0.10 | 0.00 | 39 | 1018.3 |
| 20260905141404 | 92 | 214 | 2.0 | 7.0 | 0.00 | 0.10 | 0.00 | 40 | 1018.3 |
| 20260905140903 | 92 | 226 | 3.0 | 6.0 | 0.00 | 0.10 | 0.00 | 39 | 1018.3 |
| 20260905140404 | 93 | 294 | 1.0 | 3.0 | 0.00 | 0.10 | 0.00 | 39 | 1018.3 |
| 20260905134904 | 93 | 293 | 2.0 | 6.0 | 0.00 | 0.10 | 0.00 | 38 | 1018.4 |
| 20260905134404 | 93 | 234 | 1.0 | 6.0 | 0.00 | 0.10 | 0.00 | 37 | 1018.5 |
| 20260905133904 | 93 | 254 | 2.0 | 6.0 | 0.00 | 0.10 | 0.00 | 36 | 1018.5 |
| 20260905133404 | 93 | 235 | 2.0 | 6.0 | 0.00 | 0.10 | 0.00 | 36 | 1018.6 |
| 20260905132904 | 93 | 243 | 3.0 | 6.0 | 0.00 | 0.10 | 0.00 | 36 | 1018.7 |
| 20260905132404 | 93 | 236 | 2.0 | 6.0 | 0.00 | 0.10 | 0.00 | 36 | 1018.7 |
| 20260905131404 | 93 | 240 | 2.0 | 6.0 | 0.00 | 0.10 | 0.00 | 35 | 1018.9 |
| 20260905130903 | 93 | 219 | 2.0 | 8.0 | 0.00 | 0.10 | 0.00 | 35 | 1019.0 |
| 20260905130404 | 93 | 278 | 2.0 | 8.0 | 0.00 | 0.10 | 0.00 | 36 | 1019.1 |
| 20260905125903 | 93 | 226 | 1.0 | 7.0 | 0.00 | 0.10 | 0.00 | 34 | 1019.0 |
| 20260905124903 | 93 | 219 | 2.0 | 8.0 | 0.00 | 0.10 | 0.00 | 35 | 1019.2 |
| 20260905123904 | 93 | 230 | 2.0 | 8.0 | 0.00 | 0.10 | 0.00 | 35 | 1019.2 |
| 20260905123404 | 93 | 206 | 3.0 | 8.0 | 0.00 | 0.10 | 0.00 | 36 | 1019.3 |
| 20260905122904 | 93 | 216 | 3.0 | 8.0 | 0.00 | 0.10 | 0.00 | 37 | 1019.4 |
| 20260905122404 | 93 | 229 | 3.0 | 8.0 | 0.00 | 0.10 | 0.00 | 35 | 1019.4 |
| 20260905121403 | 92 | 216 | 2.0 | 8.0 | 0.00 | 0.10 | 0.00 | 36 | 1019.5 |
| 20260905120903 | 93 | 252 | 2.0 | 8.0 | 0.00 | 0.10 | 0.00 | 36 | 1019.5 |
| 20260905120403 | 92 | 235 | 4.0 | 9.0 | 0.00 | 0.10 | 0.00 | 37 | 1019.5 |
| 20260905115403 | 92 | 211 | 3.0 | 7.0 | 0.00 | 0.10 | 0.00 | 42 | 1019.6 |
| 20260905114903 | 92 | 234 | 3.0 | 7.0 | 0.00 | 0.10 | 0.00 | 39 | 1019.7 |
| 20260905114403 | 91 | 344 | 3.0 | 6.0 | 0.00 | 0.10 | 0.00 | 40 | 1019.7 |
| 20260905113903 | 92 | 249 | 3.0 | 6.0 | 0.00 | 0.10 | 0.00 | 39 | 1019.8 |
| 20260905113403 | 92 | 254 | 2.0 | 6.0 | 0.00 | 0.10 | 0.00 | 40 | 1019.8 |
| 20260905111903 | 91 | 215 | 2.0 | 7.0 | 0.00 | 0.10 | 0.00 | 39 | 1019.8 |
| 20260905111404 | 91 | 226 | 2.0 | 8.0 | 0.00 | 0.10 | 0.00 | 40 | 1019.8 |
| 20260905110903 | 90 | 230 | 2.0 | 8.0 | 0.00 | 0.10 | 0.00 | 40 | 1019.8 |
| 20260905110404 | 91 | 283 | 3.0 | 7.0 | 0.00 | 0.10 | 0.00 | 38 | 1019.9 |
| 20260905104904 | 90 | 278 | 2.0 | 8.0 | 0.00 | 0.10 | 0.00 | 41 | 1019.9 |
| 20260905104404 | 90 | 245 | 2.0 | 8.0 | 0.00 | 0.10 | 0.00 | 42 | 1020.1 |
| 20260905103904 | 90 | 227 | 3.0 | 8.0 | 0.00 | 0.10 | 0.00 | 41 | 1020.1 |
| 20260905103403 | 90 | 272 | 2.0 | 6.0 | 0.00 | 0.10 | 0.00 | 42 | 1020.1 |
| 20260905102903 | 90 | 215 | 2.0 | 6.0 | 0.00 | 0.10 | 0.00 | 41 | 1020.2 |
| 20260905102403 | 90 | 223 | 3.0 | 6.0 | 0.00 | 0.10 | 0.00 | 41 | 1020.2 |
| 20260905101910 | 90 | 243 | 2.0 | 8.0 | 0.00 | 0.10 | 0.00 | 42 | 1020.4 |
| 20260905101403 | 90 | 218 | 2.0 | 8.0 | 0.00 | 0.10 | 0.00 | 42 | 1020.4 |
| 20260905100903 | 90 | 221 | 1.0 | 8.0 | 0.00 | 0.10 | 0.00 | 44 | 1020.5 |
| 20260905100403 | 90 | 253 | 2.0 | 5.0 | 0.00 | 0.10 | 0.00 | 44 | 1020.6 |
| 20260905095903 | 90 | 219 | 2.0 | 6.0 | 0.00 | 0.10 | 0.00 | 43 | 1020.7 |
| 20260905095403 | 89 | 278 | 2.0 | 6.0 | 0.00 | 0.10 | 0.00 | 46 | 1020.7 |
| 20260905094903 | 88 | 240 | 2.0 | 8.0 | 0.00 | 0.10 | 0.00 | 46 | 1020.8 |
| 20260905094403 | 88 | 235 | 3.0 | 8.0 | 0.00 | 0.10 | 0.00 | 46 | 1020.8 |
| 20260905093904 | 88 | 240 | 2.0 | 6.0 | 0.00 | 0.10 | 0.00 | 46 | 1020.8 |
| 20260905093404 | 88 | 247 | 1.0 | 7.0 | 0.00 | 0.10 | 0.00 | 48 | 1020.8 |
| 20260905092903 | 88 | 219 | 3.0 | 7.0 | 0.00 | 0.10 | 0.00 | 48 | 1020.9 |
| 20260905092404 | 88 | 239 | 1.0 | 5.0 | 0.00 | 0.10 | 0.00 | 50 | 1020.8 |
| 20260905091403 | 88 | 292 | 2.0 | 7.0 | 0.00 | 0.10 | 0.00 | 50 | 1021.0 |
| 20260905090404 | 86 | 275 | 2.0 | 7.0 | 0.00 | 0.10 | 0.00 | 51 | 1021.0 |
| 20260905085403 | 87 | 281 | 1.0 | 6.0 | 0.00 | 0.10 | 0.00 | 53 | 1021.0 |
| 20260905084903 | 87 | 324 | 1.0 | 6.0 | 0.00 | 0.10 | 0.00 | 53 | 1021.0 |
| 20260905084403 | 87 | 206 | 1.0 | 5.0 | 0.00 | 0.10 | 0.00 | 52 | 1021.0 |
| 20260905083904 | 87 | 262 | 2.0 | 5.0 | 0.00 | 0.10 | 0.00 | 54 | 1021.0 |
| 20260905081904 | 86 | 282 | 1.0 | 5.0 | 0.00 | 0.10 | 0.00 | 58 | 1021.2 |
| 20260905080903 | 85 | 336 | 1.0 | 5.0 | 0.00 | 0.10 | 0.00 | 59 | 1021.2 |
| 20260905080404 | 84 | 25 | 2.0 | 5.0 | 0.00 | 0.10 | 0.00 | 59 | 1021.2 |
| 20260905075904 | 84 | 235 | 1.0 | 5.0 | 0.00 | 0.10 | 0.00 | 60 | 1021.2 |
| 20260905075404 | 70 | 0 | 0.0 | 0.0 | 0.00 | 0.10 | 0.00 | 75 | 1021.1 |
| 20260905074404 | 70 | 0 | 0.0 | 0.0 | 0.00 | 0.10 | 0.00 | 75 | 1021.1 |
| 20260905073403 | 70 | 0 | 0.0 | 0.0 | 0.00 | 0.10 | 0.00 | 75 | 1021.1 |
| 20260905072404 | 70 | 0 | 0.0 | 0.0 | 0.00 | 0.10 | 0.00 | 75 | 1021.1 |
| 20260905071903 | 70 | 0 | 0.0 | 0.0 | 0.00 | 0.10 | 0.00 | 75 | 1021.0 |
| 20260905071403 | 70 | 0 | 0.0 | 0.0 | 0.00 | 0.10 | 0.00 | 75 | 1021.1 |
| 20260905070903 | 70 | 0 | 0.0 | 0.0 | 0.00 | 0.10 | 0.00 | 75 | 1021.1 |
| 20260905070403 | 70 | 0 | 0.0 | 0.0 | 0.00 | 0.10 | 0.00 | 75 | 1021.0 |
| 20260905065903 | 70 | 0 | 0.0 | 0.0 | 0.00 | 0.10 | 0.00 | 75 | 1021.0 |
| 20260905064903 | 70 | 0 | 0.0 | 0.0 | 0.00 | 0.10 | 0.00 | 75 | 1021.0 |
| 20260905063905 | 70 | 0 | 0.0 | 0.0 | 0.00 | 0.10 | 0.00 | 75 | 1021.0 |
| 20260905063404 | 70 | 0 | 0.0 | 0.0 | 0.00 | 0.10 | 0.00 | 75 | 1021.0 |
| 20260905062903 | 70 | 0 | 0.0 | 0.0 | 0.00 | 0.10 | 0.00 | 75 | 1021.0 |
| 20260905062404 | 70 | 0 | 0.0 | 0.0 | 0.00 | 0.10 | 0.00 | 75 | 1021.0 |
| 20260905061904 | 70 | 0 | 0.0 | 0.0 | 0.00 | 0.10 | 0.00 | 75 | 1021.0 |
| 20260905061404 | 70 | 0 | 0.0 | 0.0 | 0.00 | 0.10 | 0.00 | 75 | 1021.0 |